Regional Weather Roundup
Issued by NWS

Home | Current Version | Previous Version | Graphics & Text | Print | Product List | Glossary On
Versions: 1 2 3 4 5 6 7 8 9 10 11 12 13 14 15 16 17 18 19 20 21 22 23 24 25 26 27 28 29 30 31 32 33 34 35 36 37 38 39 40 41 42 43 44 45 46 47 48 49 50
569
ASUS43 KOAX 070802
RWRNE

WEATHER ROUNDUP FOR NEBRASKA
NATIONAL WEATHER SERVICE OMAHA NE
200 AM CST WED DEC 07 2016

NOTES: SATELLITE DATA IS BEING USED TO AUGMENT CLOUD COVER ABOVE
       12000 FEET.
       "FAIR" INDICATES FEW OR NO CLOUDS BELOW 12,000 FEET WITH NO
       SIGNIFICANT WEATHER AND/OR OBSTRUCTIONS TO VISIBILITY.

  * THESE STATIONS DO NOT REPORT WEATHER SUCH AS RAIN...SNOW OR FOG.

NEZ001>004-019>022-054>056-070900-
NEBRASKA PANHANDLE

CITY           SKY/WX    TMP DP  RH WIND       PRES   REMARKS
SCOTTSBLUFF    CLOUDY    13  -1  54 N13       30.07R WCI  -2
ALLIANCE       CLOUDY     9   1  70 N12       30.06S WCI  -6
CHADRON        CLOUDY    10   2  69 W9        30.15R WCI  -3
KIMBALL        LGT SNOW  14  12  92 NE10      29.97R WCI   1
SIDNEY         LGT SNOW  15   7  70 NE14      30.01F WCI   0
$$

NEZ057>060-069>072-079>082-070900-
SOUTHWEST NEBRASKA

CITY           SKY/WX    TMP DP  RH WIND       PRES   REMARKS
NORTH PLATTE   CLOUDY    14   2  58 CALM      30.15R
IMPERIAL       CLOUDY    21  16  81 NE7       30.05R WCI  12
LEXINGTON      CLOUDY    19   6  59 N10       30.14R WCI   7
MCCOOK         CLOUDY    22   8  55 NE10      30.08S WCI  11
OGALLALA       CLOUDY    17   5  58 NE14      30.09F WCI   3
$$

NEZ005>010-023>029-035>040-094-070900-
NORTH CENTRAL NEBRASKA

CITY           SKY/WX    TMP DP  RH WIND       PRES   REMARKS
VALENTINE      CLOUDY     6  -2  69 NW9       30.17R WCI  -8
AINSWORTH      CLOUDY     8   2  74 NW10      30.15R WCI  -6
BROKEN BOW     CLOUDY    13   2  61 N12       30.14R WCI  -1
O`NEILL        CLOUDY    11   4  74 W9G16     30.16S WCI  -2
ORD            CLOUDY    12   1  61 NW9       30.15S WCI   0
THEDFORD       CLOUDY    10   3  74 NW9       30.14R WCI  -4
$$

NEZ041-046>049-061>064-073>077-083>087-070900-
SOUTH CENTRAL NEBRASKA

CITY           SKY/WX    TMP DP  RH WIND       PRES   REMARKS
GRAND ISLAND   CLOUDY    18   7  62 N9        30.15F WCI   7
AURORA         CLOUDY    19   8  61 N14       30.15F WCI   6
HASTINGS       CLOUDY    20   8  60 N10       30.15F WCI   9
HEBRON         CLOUDY    25  13  60 N8        30.18R WCI  16
HOLDREGE       PTCLDY    21   7  54 N12       30.12S WCI   9
KEARNEY *      CLOUDY    18   1  49 N13       30.14F WCI   4
YORK           CLOUDY    19   9  63 N9G16     30.16F WCI   9
$$

NEZ011>018-030>034-042>045-070900-
NORTHEAST NEBRASKA

CITY           SKY/WX    TMP DP  RH WIND       PRES   REMARKS
NORFOLK        CLOUDY    14   3  61 NW12      30.15S WCI   0
ALBION         CLOUDY    15   4  64 NW15      30.14F WCI  -1
BLAIR          CLOUDY    19  11  69 NW14      30.16R WCI   6
FREMONT        CLOUDY    19   9  67 NW14G20   30.17F WCI   5
TEKAMAH        CLOUDY    18   8  65 NW16      30.20R WCI   3
WAYNE          CLOUDY    15   6  69 NW15G21   30.16R WCI  -1
$$

NEZ050>053-065>068-078-088>093-070900-
SOUTHEAST NEBRASKA

CITY           SKY/WX    TMP DP  RH WIND       PRES   REMARKS
LINCOLN        CLOUDY    23   9  55 NW13      30.20R WCI  11
OMAHA EPPLEY   CLOUDY    21   9  59 NW13      30.19R WCI   9
BEATRICE       CLOUDY    25  15  66 NW5       30.18R WCI  19
FALLS CITY     CLOUDY    27  13  55 NW6       30.19R WCI  20
NEBRASKA CITY  CLOUDY    24   9  52 N10       30.18R WCI  13
PLATTSMOUTH    CLOUDY    23   9  56 NW9       30.18R WCI  13
$$

NEZ044-045-051>053-067-070900-
OMAHA AREA

CITY           SKY/WX    TMP DP  RH WIND       PRES   REMARKS
OMAHA EPPLEY   CLOUDY    21   9  59 NW13      30.19R WCI   9
BLAIR          CLOUDY    19  11  69 NW14      30.16R WCI   6
FREMONT        CLOUDY    19   9  67 NW14G20   30.17F WCI   5
MILLARD        CLOUDY    22   9  57 NW10      30.19R WCI  11
OFFUTT AFB     CLOUDY    22   9  58 NW10      30.19R WCI  11
PLATTSMOUTH    CLOUDY    23   9  56 NW9       30.18R WCI  13
WAHOO          FAIR      20   9  61 NW14G20   30.18R WCI   7
$$




USA.gov is the U.S. government's official web portal to all federal, state and local government web resources and services.